Location: Ehrke Reservoir
(40.0279°N, 99.6641°W)
Time: 11:20:15
(UTC+00:00)

Cosmos 1980 - Pass Details

Date: 20 January 2020
Orbit: 838 x 849 km, 71.0° (Epoch: 26 February)

Event Time Altitude Azimuth Distance (km) Brightness Sun altitude
Rises 01:41:40 0° 333° (NNW) 3,418 7.1 -22.7°
Reaches altitude 10° 01:44:09 10° 330° (NNW) 2,480 6.4 -23.1°
Maximum altitude 01:49:45 62° 251° (WSW) 954 4.1 -24.2°
Drops below altitude 10° 01:55:20 10° 172° (S) 2,464 6.1 -25.2°
Sets 01:57:47 0° 169° (S) 3,394 6.8 -25.7°
